SCP
-0 -0 -0 -0 -0 -0 0 -0 -0 0 0 0 0 0 -0 0 0 0 0 -0 0 0 0 0 0 0 0 0 0 0 0 0 0 0 0 0 0 0 -0 0 -0 -0 -0
0 0 0 -0 0 0 -0 -0 0 0 0 0 0 0 -0 -0 0 0 0 0 0 0 0 0 0 0 0 0 0 0 0 0 0 -0 -0 0 -0 0 0 -0 -0 -0 -0
-0 0 0 0 -0 -0 -0 -0 -0 -0 -0 0 0 -0 -0 -0 0 0 0 0 0 0 0 0 0 -0 -0 0 0 0 -0 -0 -0 -0 -0 -0 0 0 0 0 0 -0 -0
-0 -0 -0 0 0 -0 0 0 0 0 -0 -0 0 0 0 0 0 0 0 0 0 0 0 0 0 -0 0 0 -0 0 0 0 -0 -0 -0 -0 0 0 0 0 0 0 0
-0 -0 0 0 0 0 0 0 0 0 0 0 0 0 0 0 0 0 0 0 0 0 0 0 0 -0 0 0 0 0 0 0 0 0 0 0 0 0 0 0 0 0 0
-0 0 0 0 -0 -0 0 0 0 0 0 0 0 0 0 0 0 0 -0 0 0 0 0 0 0 -0 0 -0 0 -0 -0 -0 -0 -0 -0 0 0 0 0 0 0 0 0
0 0 0 0 -0 -0 -0 -0 -0 -0 -0 0 0 0 -0 -0 -0 -0 0 0 -0 -0 -0 -0 0 0 0 -0 -0 -0 -0 -0 -0 -0 -0 -0 -0 0 0 0 0 0 0
0 0 0 0 0 -0 -0 -0 -0 -0 -0 -0 0 -0 -0 -0 0 0 0 0 -0 -0 -0 -0 -0 -0 -0 0 -0 -0 -0 -0 -0 -0 -0 -0 -0 0 0 0 0 -0 -0
0 0 -0 -0 0 0 -0 -0 0 -0 -0 -0 0 -0 -0 0 -0 0 0 0 0 0 0 0 -0 -0 -0 -0 -0 -0 -0 -1 -1 -0 -0 -0 -0 -0 -0 -0 -0 -0 -0
0 0 0 0 0 0 0 0 0 0 0 0 0 -0 -0 0 0 -0 0 0 0 0 0 0 0 0 -0 -0 -0 0 -0 -0 -0 -0 -0 -0 -0 -0 -0 -0 -0 -0 -0
0 -0 -0 0 0 0 0 0 0 0 0 0 -0 0 -0 -0 -0 -0 -0 0 0 0 0 0 0 0 -0 -0 -0 -0 -0 -0 -0 -0 -0 -0 -0 -0 -0 -0 -0 -0 -0
0 -0 0 0 0 0 0 -0 0 -0 -0 0 0 0 -0 -0 -0 -0 -0 0 0 0 0 0 0 0 0 0 0 0 0 0 0 -0 -0 -0 -0 -0 -0 -0 -0 -0 -0
0 0 0 -0 0 0 0 -0 0 0 0 0 0 0 0 0 -0 -0 0 0 0 0 -0 -0 0 0 0 0 0 -0 -0 0 0 -0 -0 -0 -0 -0 -0 -0 -0 -0 -0
0 0 0 -0 0 0 0 -0 0 0 0 0 0 0 0 0 0 0 0 0 -0 0 -0 0 -0 0 0 0 -0 0 0 -0 0 0 -0 -0 -0 0 -0 -0 -0 -0 -0
0 0 0 -0 0 0 -0 -0 0 0 0 0 -0 0 0 -0 0 0 -0 0 -0 0 -0 -0 -0 0 0 0 0 0 0 -0 0 -0 -0 0 0 -0 -0 -0 -0 -0 0
0 0 0 -0 -0 0 0 -0 0 0 0 -0 -0 0 -0 0 -0 0 0 -0 -0 0 0 -0 -0 0 0 -0 0 0 0 -0 -0 -0 -0 -0 0 -0 -0 -0 -0 0 -0
0 0 0 0 -0 -0 -0 0 0 0 -0 -0 -0 -0 0 -0 -0 -0 -0 0 0 0 -0 -0 -0 0 -0 -0 0 0 0 -0 -0 -0 -0 -0 -0 -0 -0 -0 -0 -0 -0
0 0 0 0 0 -0 0 0 0 0 -0 -0 -0 -0 0 -0 -0 -0 0 0 0 -0 -0 0 -0 -0 0 -0 -0 -0 -0 0 -0 -0 0 0 0 0 0 0 0 0 0
0 0 0 -0 0 0 0 0 0 0 -0 -0 -0 -0 0 0 0 0 0 -0 0 0 0 0 0 0 -0 -0 -0 0 0 0 0 -0 -0 0 0 0 0 0 0 0 0
0 0 0 -0 0 -0 0 0 -0 -0 -0 0 0 0 0 0 0 -0 -0 0 0 0 0 0 0 0 0 0 -0 -0 0 0 -0 0 0 0 0 0 0 0 0 0 0
0 0 0 -0 0 -0 0 0 -0 -0 -0 0 0 0 0 0 0 0 -0 0 0 0 0 0 0 0 0 -0 -0 -0 -0 -0 0 -0 -0 0 0 0 0 0 0 0 0
0 0 -0 -0 0 0 -0 0 -0 -0 0 0 0 -0 0 0 0 0 0 0 -0 0 0 -0 -0 0 -0 -0 -0 -0 -0 -0 0 0 -0 0 0 0 0 0 0 0 0
0 0 -0 0 0 0 0 0 -0 -0 0 0 -0 -0 0 0 0 0 0 0 0 0 0 0 0 -0 0 0 0 -0 0 -0 -0 0 -0 0 0 0 0 0 0 0 0
-0 -0 0 0 0 -0 0 0 0 -0 0 -0 -0 -0 0 0 0 0 0 0 0 0 0 0 0 0 0 -0 -0 -0 0 0 0 0 0 0 0 0 0 0 0 0 0
-0 -0 0 0 0 -0 0 -0 -0 -0 -0 -0 -0 -0 -0 -0 -0 0 0 0 0 0 0 0 0 0 0 0 0 -0 0 0 0 0 0 0 0 0 0 0 0 0 0
-0 -0 -0 -0 -0 -0 -0 -0 -0 -0 -0 -0 -0 0 0 0 -0 0 0 0 0 0 0 0 0 0 0 0 0 0 0 0 0 0 0 0 0 0 0 0 0 0 0
Wind_Speed_500mb
22 22 23 22 21 20 18 18 17 13 12 9 8 9 9 6 5 3 3 11 3 0 1 4 6 5 8 11 12 9 9 9 10 12 12 9 12 9 9 9 9 9 8
23 24 25 25 24 23 20 18 17 15 13 14 13 11 11 9 9 7 5 10 9 9 10 8 6 7 10 10 11 7 7 6 10 12 12 8 13 11 13 13 12 12 11
24 25 23 25 24 24 24 21 19 17 15 15 17 16 15 16 14 16 11 11 17 17 17 18 11 14 17 14 12 10 7 5 9 12 13 12 12 14 15 15 14 15 12
18 23 23 22 23 24 22 22 21 21 20 21 20 19 19 20 20 20 18 17 15 18 25 24 24 26 28 16 11 13 13 13 22 19 18 20 18 20 19 18 20 19 17
18 18 22 23 25 20 23 23 23 23 22 23 23 23 21 19 19 22 30 30 32 29 29 35 33 36 34 29 22 29 50 51 48 57 47 40 27 25 24 25 24 25 23
19 17 17 22 21 19 22 20 21 24 24 21 19 23 29 29 29 34 36 39 41 37 38 37 37 42 32 35 43 38 46 44 45 54 64 52 58 48 31 27 28 28 30
15 18 16 19 20 20 22 19 18 18 17 20 20 19 19 22 26 22 24 25 25 29 32 37 34 32 42 48 37 40 44 37 31 28 31 53 48 48 50 34 30 30 33
18 16 19 17 18 21 16 15 18 21 12 15 14 12 6 5 6 5 10 15 18 21 26 28 26 28 32 28 35 31 35 31 29 25 27 27 25 40 48 34 33 34 36
19 15 16 19 21 19 16 13 12 15 14 10 8 6 4 4 7 5 1 1 7 9 12 18 22 24 26 26 30 30 30 32 29 25 22 22 18 27 41 41 42 42 42
11 18 13 14 15 18 15 17 14 15 12 10 1 7 3 2 3 2 2 4 4 1 8 11 14 17 18 20 24 24 31 24 24 20 18 19 24 29 34 33 32 33 36
13 13 13 13 16 18 13 18 18 17 14 10 7 6 6 2 3 1 3 7 8 3 3 7 10 11 14 12 15 9 11 15 15 13 13 15 20 29 35 36 36 33 30
14 18 18 17 17 16 17 15 20 20 16 18 16 13 8 5 4 7 8 9 9 4 9 8 8 10 13 14 13 15 11 13 18 17 16 13 13 17 23 27 29 29 29
14 19 22 18 17 13 19 16 15 20 20 17 17 16 12 15 12 10 12 13 13 14 10 9 7 9 11 14 16 19 20 20 18 22 23 22 16 13 17 21 23 27 28
14 20 23 21 17 15 15 18 17 15 18 17 20 18 12 13 13 15 14 15 16 14 8 6 10 7 7 9 13 16 20 18 20 21 24 26 25 21 15 18 20 23 24
15 12 22 24 19 16 17 18 17 17 22 18 19 19 17 14 20 12 14 14 10 16 11 8 10 11 8 8 11 9 13 23 24 25 27 29 29 26 20 20 19 21 22
21 13 15 19 18 22 19 17 16 17 18 17 13 17 17 17 13 18 18 14 13 16 21 15 14 17 18 13 18 16 15 20 15 13 20 28 32 26 24 22 21 22 24
25 21 18 16 17 18 19 20 21 20 16 16 15 14 12 11 17 15 12 13 15 18 20 18 16 16 17 13 14 13 11 8 14 19 18 16 29 26 24 23 24 26 28
27 26 25 21 23 23 21 20 21 17 15 13 12 9 9 9 12 13 9 15 13 15 13 14 14 11 14 15 13 15 12 9 9 24 12 6 15 23 26 29 31 30 31
30 27 25 29 26 28 26 24 20 16 14 16 14 7 6 7 8 11 9 9 12 6 11 13 14 11 12 11 10 13 11 14 7 23 12 14 17 21 25 28 31 33 34
33 29 27 31 37 36 32 26 20 18 18 16 12 9 8 6 9 10 6 9 10 9 12 11 12 12 11 15 9 6 7 4 9 9 12 16 26 24 26 29 31 34 34
36 30 25 23 49 49 39 31 24 21 21 19 17 14 11 10 10 6 5 10 11 6 9 11 12 11 10 10 11 6 8 8 13 9 9 12 16 17 23 26 22 23 27
41 33 24 17 37 41 36 29 25 27 25 24 21 18 10 6 5 3 5 6 7 7 9 10 11 12 14 9 11 8 7 7 5 6 9 11 14 11 13 15 29 28 25
44 39 33 33 34 34 34 31 31 28 26 23 21 21 10 5 6 8 8 11 12 12 16 17 14 13 12 9 10 6 9 6 8 11 18 13 14 10 12 26 29 23 23
48 46 40 38 38 39 39 37 36 35 30 27 25 23 17 10 5 7 10 11 10 13 16 5 17 14 18 17 13 11 12 13 13 10 15 8 13 12 18 24 23 18 18
50 50 47 44 44 41 40 39 39 38 29 32 31 29 25 18 12 8 11 11 15 13 14 11 13 14 15 19 20 14 12 13 11 14 17 10 13 15 16 21 29 25 30
50 46 49 50 47 43 39 39 41 33 33 32 33 34 31 27 20 15 14 15 17 10 8 14 8 11 9 12 18 19 11 11 13 13 18 7 11 13 8 9 18 22 27
Wind_Direction_500mb
177 177 181 179 179 187 192 192 195 197 209 194 201 184 173 178 187 176 254 274 244 250 251 248 240 252 256 251 248 237 222 218 224 221 232 220 205 211 227 229 234 241 237
185 189 188 189 191 192 192 198 207 212 216 221 232 234 230 232 257 245 242 279 275 270 250 234 216 205 249 250 250 246 244 249 242 241 246 240 241 218 227 229 235 236 241
195 187 193 195 198 203 202 206 214 221 223 235 242 241 246 253 251 259 262 243 278 275 264 240 225 224 245 238 239 252 237 232 248 257 248 240 235 237 247 244 232 241 244
204 195 192 200 209 203 212 216 220 228 234 239 244 243 254 251 255 255 256 246 250 250 269 244 214 240 240 234 236 228 245 236 239 246 259 256 242 239 239 247 252 246 245
209 201 196 197 205 202 211 220 227 224 233 237 241 252 245 251 256 251 259 261 262 255 257 259 249 231 237 231 232 243 246 242 243 245 250 262 267 252 250 248 248 250 245
205 206 202 201 200 204 222 213 231 221 233 246 248 246 260 260 261 259 266 262 261 260 261 266 256 243 233 237 236 245 250 267 274 267 242 250 255 250 259 253 250 251 253
205 206 208 209 201 218 226 228 235 248 236 242 258 266 275 259 263 255 256 254 250 257 252 258 262 240 251 248 257 242 254 259 271 292 254 243 261 243 240 246 248 249 251
220 212 205 221 210 207 223 225 231 224 228 235 252 266 286 144 193 226 237 236 242 258 250 268 258 251 244 238 243 251 255 259 267 274 257 255 262 240 223 238 251 256 259
226 233 234 203 224 224 216 229 233 228 232 230 264 236 72 103 131 116 129 187 242 236 242 255 257 255 250 248 247 249 250 262 268 268 265 253 251 226 229 252 261 261 259
237 224 230 221 226 227 223 234 231 233 231 242 93 235 221 139 63 72 107 44 4 308 252 243 241 245 247 254 256 242 249 257 262 265 269 259 241 235 240 247 256 263 262
237 230 238 227 219 216 228 232 214 240 239 216 218 204 220 268 291 18 34 14 19 13 298 257 249 247 245 247 238 241 231 244 244 259 275 262 249 242 242 247 254 256 259
241 244 239 222 225 213 209 233 233 232 222 222 212 225 250 246 289 294 322 327 334 317 297 320 259 254 250 246 249 246 272 270 257 262 267 265 257 251 248 247 249 248 250
230 249 238 221 227 225 224 243 237 233 240 236 227 224 228 265 260 284 298 307 307 304 297 277 283 267 255 246 245 257 261 276 278 262 259 259 261 264 255 246 246 248 249
235 245 217 200 221 225 228 233 233 222 237 237 231 227 240 271 279 285 289 297 304 298 278 244 281 273 266 254 249 270 272 283 278 267 264 257 256 260 270 253 242 246 250
237 240 208 212 230 234 229 225 212 224 225 232 233 239 252 258 255 266 271 281 272 304 301 297 297 278 278 287 263 267 263 283 288 274 265 253 249 250 263 266 255 253 256
225 228 212 218 235 226 228 221 218 233 226 219 222 241 246 249 268 261 284 283 282 286 290 295 290 288 280 279 287 279 274 296 286 295 285 255 244 247 257 261 260 262 266
227 224 228 228 221 212 210 216 203 214 221 219 219 230 259 276 271 294 289 289 285 284 279 281 311 297 314 303 260 277 274 293 297 307 312 259 227 238 242 251 260 265 267
225 227 230 231 220 215 210 203 206 214 212 206 220 229 246 254 277 277 294 279 270 277 261 298 291 302 310 287 280 273 235 264 252 288 305 245 212 237 245 259 262 265 269
222 227 229 227 220 217 211 208 209 213 211 220 218 235 236 226 255 255 272 262 280 306 299 285 279 295 296 301 294 302 252 237 257 280 272 271 259 260 264 267 268 272 275
221 229 235 230 222 218 213 206 201 204 220 217 217 216 233 255 272 263 265 259 282 270 283 289 280 280 291 285 295 253 266 230 225 267 283 258 286 278 279 276 278 277 277
219 228 240 239 208 210 208 200 203 214 214 208 220 216 239 291 307 285 206 253 253 290 275 280 283 286 286 274 285 297 255 272 290 277 275 275 293 299 300 313 307 278 273
216 219 219 195 188 198 201 202 210 219 212 212 218 208 242 297 326 313 310 300 283 270 275 267 276 282 292 287 292 287 299 286 287 290 314 291 293 300 295 287 272 284 281
212 211 211 204 201 203 206 210 212 213 217 213 223 213 229 233 340 340 320 307 298 291 286 270 260 261 270 265 254 254 253 273 278 297 317 301 288 292 289 288 286 285 286
212 211 212 208 206 208 212 212 211 217 220 219 223 220 228 249 279 334 327 304 289 289 294 274 263 243 249 244 258 278 276 302 311 284 317 283 279 292 297 284 303 305 297
213 212 213 212 210 211 210 211 213 219 223 224 225 226 235 246 258 286 304 301 303 295 281 268 264 270 265 250 249 245 270 271 266 271 271 288 294 311 290 280 294 302 304
217 210 214 216 215 215 213 214 218 215 226 224 225 232 236 243 253 270 296 308 315 270 231 282 264 259 267 268 246 228 242 249 239 275 272 279 276 298 306 237 305 300 308
Wind_Speed_850mb
22 22 23 22 21 20 18 18 17 13 12 9 8 9 9 6 5 3 3 11 3 0 1 4 6 5 8 11 12 9 9 9 10 12 12 9 12 9 9 9 9 9 8
23 24 25 25 24 23 20 18 17 15 13 14 13 11 11 9 9 7 5 10 9 9 10 8 6 7 10 10 11 7 7 6 10 12 12 8 13 11 13 13 12 12 11
24 25 23 25 24 24 24 21 19 17 15 15 17 16 15 16 14 16 11 11 17 17 17 18 11 14 17 14 12 10 7 5 9 12 13 12 12 14 15 15 14 15 12
18 23 23 22 23 24 22 22 21 21 20 21 20 19 19 20 20 20 18 17 15 18 25 24 24 26 28 16 11 13 13 13 22 19 18 20 18 20 19 18 20 19 17
18 18 22 23 25 20 23 23 23 23 22 23 23 23 21 19 19 22 30 30 32 29 29 35 33 36 34 29 22 29 50 51 48 57 47 40 27 25 24 25 24 25 23
19 17 17 22 21 19 22 20 21 24 24 21 19 23 29 29 29 34 36 39 41 37 38 37 37 42 32 35 43 38 46 44 45 54 64 52 58 48 31 27 28 28 30
15 18 16 19 20 20 22 19 18 18 17 20 20 19 19 22 26 22 24 25 25 29 32 37 34 32 42 48 37 40 44 37 31 28 31 53 48 48 50 34 30 30 33
18 16 19 17 18 21 16 15 18 21 12 15 14 12 6 5 6 5 10 15 18 21 26 28 26 28 32 28 35 31 35 31 29 25 27 27 25 40 48 34 33 34 36
19 15 16 19 21 19 16 13 12 15 14 10 8 6 4 4 7 5 1 1 7 9 12 18 22 24 26 26 30 30 30 32 29 25 22 22 18 27 41 41 42 42 42
11 18 13 14 15 18 15 17 14 15 12 10 1 7 3 2 3 2 2 4 4 1 8 11 14 17 18 20 24 24 31 24 24 20 18 19 24 29 34 33 32 33 36
13 13 13 13 16 18 13 18 18 17 14 10 7 6 6 2 3 1 3 7 8 3 3 7 10 11 14 12 15 9 11 15 15 13 13 15 20 29 35 36 36 33 30
14 18 18 17 17 16 17 15 20 20 16 18 16 13 8 5 4 7 8 9 9 4 9 8 8 10 13 14 13 15 11 13 18 17 16 13 13 17 23 27 29 29 29
14 19 22 18 17 13 19 16 15 20 20 17 17 16 12 15 12 10 12 13 13 14 10 9 7 9 11 14 16 19 20 20 18 22 23 22 16 13 17 21 23 27 28
14 20 23 21 17 15 15 18 17 15 18 17 20 18 12 13 13 15 14 15 16 14 8 6 10 7 7 9 13 16 20 18 20 21 24 26 25 21 15 18 20 23 24
15 12 22 24 19 16 17 18 17 17 22 18 19 19 17 14 20 12 14 14 10 16 11 8 10 11 8 8 11 9 13 23 24 25 27 29 29 26 20 20 19 21 22
21 13 15 19 18 22 19 17 16 17 18 17 13 17 17 17 13 18 18 14 13 16 21 15 14 17 18 13 18 16 15 20 15 13 20 28 32 26 24 22 21 22 24
25 21 18 16 17 18 19 20 21 20 16 16 15 14 12 11 17 15 12 13 15 18 20 18 16 16 17 13 14 13 11 8 14 19 18 16 29 26 24 23 24 26 28
27 26 25 21 23 23 21 20 21 17 15 13 12 9 9 9 12 13 9 15 13 15 13 14 14 11 14 15 13 15 12 9 9 24 12 6 15 23 26 29 31 30 31
30 27 25 29 26 28 26 24 20 16 14 16 14 7 6 7 8 11 9 9 12 6 11 13 14 11 12 11 10 13 11 14 7 23 12 14 17 21 25 28 31 33 34
33 29 27 31 37 36 32 26 20 18 18 16 12 9 8 6 9 10 6 9 10 9 12 11 12 12 11 15 9 6 7 4 9 9 12 16 26 24 26 29 31 34 34
36 30 25 23 49 49 39 31 24 21 21 19 17 14 11 10 10 6 5 10 11 6 9 11 12 11 10 10 11 6 8 8 13 9 9 12 16 17 23 26 22 23 27
41 33 24 17 37 41 36 29 25 27 25 24 21 18 10 6 5 3 5 6 7 7 9 10 11 12 14 9 11 8 7 7 5 6 9 11 14 11 13 15 29 28 25
44 39 33 33 34 34 34 31 31 28 26 23 21 21 10 5 6 8 8 11 12 12 16 17 14 13 12 9 10 6 9 6 8 11 18 13 14 10 12 26 29 23 23
48 46 40 38 38 39 39 37 36 35 30 27 25 23 17 10 5 7 10 11 10 13 16 5 17 14 18 17 13 11 12 13 13 10 15 8 13 12 18 24 23 18 18
50 50 47 44 44 41 40 39 39 38 29 32 31 29 25 18 12 8 11 11 15 13 14 11 13 14 15 19 20 14 12 13 11 14 17 10 13 15 16 21 29 25 30
50 46 49 50 47 43 39 39 41 33 33 32 33 34 31 27 20 15 14 15 17 10 8 14 8 11 9 12 18 19 11 11 13 13 18 7 11 13 8 9 18 22 27
Wind_Direction_850mb
177 177 181 179 179 187 192 192 195 197 209 194 201 184 173 178 187 176 254 274 244 250 251 248 240 252 256 251 248 237 222 218 224 221 232 220 205 211 227 229 234 241 237
185 189 188 189 191 192 192 198 207 212 216 221 232 234 230 232 257 245 242 279 275 270 250 234 216 205 249 250 250 246 244 249 242 241 246 240 241 218 227 229 235 236 241
195 187 193 195 198 203 202 206 214 221 223 235 242 241 246 253 251 259 262 243 278 275 264 240 225 224 245 238 239 252 237 232 248 257 248 240 235 237 247 244 232 241 244
204 195 192 200 209 203 212 216 220 228 234 239 244 243 254 251 255 255 256 246 250 250 269 244 214 240 240 234 236 228 245 236 239 246 259 256 242 239 239 247 252 246 245
209 201 196 197 205 202 211 220 227 224 233 237 241 252 245 251 256 251 259 261 262 255 257 259 249 231 237 231 232 243 246 242 243 245 250 262 267 252 250 248 248 250 245
205 206 202 201 200 204 222 213 231 221 233 246 248 246 260 260 261 259 266 262 261 260 261 266 256 243 233 237 236 245 250 267 274 267 242 250 255 250 259 253 250 251 253
205 206 208 209 201 218 226 228 235 248 236 242 258 266 275 259 263 255 256 254 250 257 252 258 262 240 251 248 257 242 254 259 271 292 254 243 261 243 240 246 248 249 251
220 212 205 221 210 207 223 225 231 224 228 235 252 266 286 144 193 226 237 236 242 258 250 268 258 251 244 238 243 251 255 259 267 274 257 255 262 240 223 238 251 256 259
226 233 234 203 224 224 216 229 233 228 232 230 264 236 72 103 131 116 129 187 242 236 242 255 257 255 250 248 247 249 250 262 268 268 265 253 251 226 229 252 261 261 259
237 224 230 221 226 227 223 234 231 233 231 242 93 235 221 139 63 72 107 44 4 308 252 243 241 245 247 254 256 242 249 257 262 265 269 259 241 235 240 247 256 263 262
237 230 238 227 219 216 228 232 214 240 239 216 218 204 220 268 291 18 34 14 19 13 298 257 249 247 245 247 238 241 231 244 244 259 275 262 249 242 242 247 254 256 259
241 244 239 222 225 213 209 233 233 232 222 222 212 225 250 246 289 294 322 327 334 317 297 320 259 254 250 246 249 246 272 270 257 262 267 265 257 251 248 247 249 248 250
230 249 238 221 227 225 224 243 237 233 240 236 227 224 228 265 260 284 298 307 307 304 297 277 283 267 255 246 245 257 261 276 278 262 259 259 261 264 255 246 246 248 249
235 245 217 200 221 225 228 233 233 222 237 237 231 227 240 271 279 285 289 297 304 298 278 244 281 273 266 254 249 270 272 283 278 267 264 257 256 260 270 253 242 246 250
237 240 208 212 230 234 229 225 212 224 225 232 233 239 252 258 255 266 271 281 272 304 301 297 297 278 278 287 263 267 263 283 288 274 265 253 249 250 263 266 255 253 256
225 228 212 218 235 226 228 221 218 233 226 219 222 241 246 249 268 261 284 283 282 286 290 295 290 288 280 279 287 279 274 296 286 295 285 255 244 247 257 261 260 262 266
227 224 228 228 221 212 210 216 203 214 221 219 219 230 259 276 271 294 289 289 285 284 279 281 311 297 314 303 260 277 274 293 297 307 312 259 227 238 242 251 260 265 267
225 227 230 231 220 215 210 203 206 214 212 206 220 229 246 254 277 277 294 279 270 277 261 298 291 302 310 287 280 273 235 264 252 288 305 245 212 237 245 259 262 265 269
222 227 229 227 220 217 211 208 209 213 211 220 218 235 236 226 255 255 272 262 280 306 299 285 279 295 296 301 294 302 252 237 257 280 272 271 259 260 264 267 268 272 275
221 229 235 230 222 218 213 206 201 204 220 217 217 216 233 255 272 263 265 259 282 270 283 289 280 280 291 285 295 253 266 230 225 267 283 258 286 278 279 276 278 277 277
219 228 240 239 208 210 208 200 203 214 214 208 220 216 239 291 307 285 206 253 253 290 275 280 283 286 286 274 285 297 255 272 290 277 275 275 293 299 300 313 307 278 273
216 219 219 195 188 198 201 202 210 219 212 212 218 208 242 297 326 313 310 300 283 270 275 267 276 282 292 287 292 287 299 286 287 290 314 291 293 300 295 287 272 284 281
212 211 211 204 201 203 206 210 212 213 217 213 223 213 229 233 340 340 320 307 298 291 286 270 260 261 270 265 254 254 253 273 278 297 317 301 288 292 289 288 286 285 286
212 211 212 208 206 208 212 212 211 217 220 219 223 220 228 249 279 334 327 304 289 289 294 274 263 243 249 244 258 278 276 302 311 284 317 283 279 292 297 284 303 305 297
213 212 213 212 210 211 210 211 213 219 223 224 225 226 235 246 258 286 304 301 303 295 281 268 264 270 265 250 249 245 270 271 266 271 271 288 294 311 290 280 294 302 304
217 210 214 216 215 215 213 214 218 215 226 224 225 232 236 243 253 270 296 308 315 270 231 282 264 259 267 268 246 228 242 249 239 275 272 279 276 298 306 237 305 300 308